Location: *
(51.2167°N, 10.0667°E)
Time: 19:53:46
(UTC+00:00)

CZ-4C R/B - Pass Details

Date: 12 December 2019
Orbit: 646 x 1355 km, 63.4° (Epoch: 21 January)

Event Time Altitude Azimuth Distance (km) Brightness Sun altitude
Rises 18:24:57 0° 197° (SSW) 3,077 5.4 -28.9°
Reaches altitude 10° 18:27:14 10° 190° (S) 2,227 4.5 -29.2°
Enters shadow 18:28:00 14° 186° (S) 1,963 4.2 -29.3°
